Stündliche Wetter Celiny

Heute, 24 Januar, Sonntag

Zeit Temperatur Niederschläge Wind Luftdruck Luftfeuchtigkeit
00:00 -1°C° 0 mm 2 m/S 720 mmHg 87%
01:00 +1°C° 0 mm 1 m/S 720 mmHg 87%
02:00 +1°C° 0 mm 1 m/S 720 mmHg 87%
03:00 +1°C° 0 mm 1 m/S 720 mmHg 86%
04:00 -1°C° 0 mm 2 m/S 720 mmHg 86%
05:00 +1°C° 0 mm 1 m/S 720 mmHg 87%
06:00 0°C° 0 mm 1 m/S 720 mmHg 89%
07:00 0°C° 0 mm 1 m/S 720 mmHg 90%
08:00 -1°C° 0.1 mm 2 m/S 720 mmHg 90%
09:00 -1°C° 0.1 mm 2 m/S 721 mmHg 90%
10:00 -1°C° 0.1 mm 2 m/S 721 mmHg 90%
11:00 -1°C° 0.4 mm 2 m/S 721 mmHg 91%
12:00 -1°C° 0.4 mm 2 m/S 721 mmHg 92%
13:00 -1°C° 0.4 mm 2 m/S 721 mmHg 94%
14:00 -1°C° 0.1 mm 2 m/S 721 mmHg 93%
15:00 -1°C° 0.1 mm 2 m/S 721 mmHg 93%
16:00 -1°C° 0.1 mm 2 m/S 721 mmHg 92%
17:00 -1°C° 0 mm 2 m/S 721 mmHg 93%
18:00 -2°C° 0 mm 2 m/S 722 mmHg 93%
19:00 -2°C° 0 mm 2 m/S 722 mmHg 93%
20:00 -2°C° 0 mm 2 m/S 722 mmHg 94%
21:00 -2°C° 0 mm 2 m/S 722 mmHg 94%
22:00 -2°C° 0 mm 2 m/S 722 mmHg 94%
23:00 -3°C° 0 mm 2 m/S 722 mmHg 94%

Morgen, 25 Januar, Montag

Zeit Temperatur Niederschläge Wind Luftdruck Luftfeuchtigkeit
00:00 -1°C° 0 mm 1 m/S 722 mmHg 94%
01:00 -1°C° 0 mm 1 m/S 722 mmHg 94%
02:00 -1°C° 0 mm 1 m/S 723 mmHg 94%
03:00 -1°C° 0 mm 1 m/S 723 mmHg 94%
04:00 -1°C° 0 mm 1 m/S 723 mmHg 93%
05:00 -1°C° 0 mm 1 m/S 724 mmHg 93%
06:00 -1°C° 0 mm 1 m/S 724 mmHg 93%
07:00 -1°C° 0 mm 1 m/S 724 mmHg 93%
08:00 -2°C° 0 mm 2 m/S 725 mmHg 91%
09:00 -2°C° 0 mm 2 m/S 725 mmHg 89%
10:00 -2°C° 0 mm 3 m/S 725 mmHg 87%
11:00 -1°C° 0 mm 3 m/S 726 mmHg 85%
12:00 -2°C° 0 mm 4 m/S 726 mmHg 83%
13:00 -2°C° 0 mm 4 m/S 726 mmHg 80%
14:00 -2°C° 0 mm 4 m/S 726 mmHg 79%
15:00 -3°C° 0 mm 4 m/S 726 mmHg 79%
16:00 -2°C° 0 mm 3 m/S 727 mmHg 78%
17:00 -2°C° 0 mm 3 m/S 727 mmHg 79%
18:00 -2°C° 0 mm 3 m/S 727 mmHg 80%
19:00 -4°C° 0 mm 3 m/S 728 mmHg 82%
20:00 -4°C° 0 mm 4 m/S 728 mmHg 81%
21:00 -4°C° 0 mm 4 m/S 728 mmHg 81%
22:00 -4°C° 0 mm 4 m/S 728 mmHg 80%
23:00 -4°C° 0 mm 4 m/S 728 mmHg 79%

übermorgen, 26 Januar, Dienstag

Zeit Temperatur Niederschläge Wind Luftdruck Luftfeuchtigkeit
00:00 -4°C° 0 mm 4 m/S 728 mmHg 79%
01:00 -4°C° 0 mm 4 m/S 728 mmHg 78%
02:00 -4°C° 0 mm 4 m/S 728 mmHg 78%
03:00 -4°C° 0 mm 4 m/S 728 mmHg 77%
04:00 -4°C° 0 mm 4 m/S 728 mmHg 76%
05:00 -4°C° 0 mm 4 m/S 728 mmHg 77%
06:00 -5°C° 0 mm 4 m/S 729 mmHg 77%
07:00 -5°C° 0 mm 4 m/S 729 mmHg 78%
08:00 -5°C° 0 mm 5 m/S 729 mmHg 77%
09:00 -5°C° 0 mm 5 m/S 729 mmHg 76%
10:00 -4°C° 0 mm 5 m/S 730 mmHg 74%
11:00 -4°C° 0 mm 5 m/S 730 mmHg 74%
12:00 -4°C° 0 mm 6 m/S 730 mmHg 73%
13:00 -3°C° 0 mm 6 m/S 730 mmHg 72%
14:00 -3°C° 0.2 mm 6 m/S 730 mmHg 77%
15:00 -4°C° 0.2 mm 6 m/S 731 mmHg 81%
16:00 -4°C° 0.2 mm 5 m/S 731 mmHg 86%
17:00 -4°C° 0 mm 5 m/S 731 mmHg 82%
18:00 -4°C° 0 mm 5 m/S 731 mmHg 79%
19:00 -4°C° 0 mm 5 m/S 732 mmHg 75%
20:00 -5°C° 0 mm 5 m/S 732 mmHg 78%
21:00 -4°C° 0 mm 4 m/S 732 mmHg 81%
22:00 -4°C° 0 mm 4 m/S 732 mmHg 84%
23:00 -4°C° 0 mm 4 m/S 732 mmHg 84%

27 Januar, Mittwoch

Zeit Temperatur Niederschläge Wind Luftdruck Luftfeuchtigkeit
00:00 -5°C° 0 mm 4 m/S 732 mmHg 83%
01:00 -5°C° 0 mm 4 m/S 732 mmHg 83%
02:00 -5°C° 0 mm 4 m/S 732 mmHg 83%
03:00 -5°C° 0 mm 4 m/S 731 mmHg 84%
04:00 -5°C° 0 mm 4 m/S 731 mmHg 85%
05:00 -5°C° 0 mm 4 m/S 731 mmHg 85%
06:00 -5°C° 0 mm 3 m/S 731 mmHg 86%
07:00 -6°C° 0 mm 3 m/S 731 mmHg 87%
08:00 -5°C° 0 mm 3 m/S 731 mmHg 84%
09:00 -4°C° 0 mm 4 m/S 730 mmHg 81%
10:00 -4°C° 0 mm 4 m/S 730 mmHg 78%
11:00 -3°C° 0 mm 4 m/S 730 mmHg 77%
12:00 -3°C° 0 mm 4 m/S 730 mmHg 76%
13:00 -2°C° 0 mm 4 m/S 730 mmHg 75%
14:00 -2°C° 0.2 mm 4 m/S 730 mmHg 81%
15:00 -2°C° 0.2 mm 3 m/S 730 mmHg 88%
16:00 -2°C° 0.2 mm 2 m/S 730 mmHg 95%
17:00 -2°C° 0.3 mm 2 m/S 730 mmHg 96%
18:00 -2°C° 0.3 mm 2 m/S 730 mmHg 96%
19:00 -2°C° 0.3 mm 2 m/S 730 mmHg 97%
20:00 -2°C° 0.2 mm 2 m/S 730 mmHg 97%
21:00 -2°C° 0.2 mm 2 m/S 731 mmHg 97%
22:00 -2°C° 0.2 mm 2 m/S 731 mmHg 97%
23:00 -2°C° 0.1 mm 2 m/S 731 mmHg 97%

28 Januar, Donnerstag

Zeit Temperatur Niederschläge Wind Luftdruck Luftfeuchtigkeit
00:00 -2°C° 0.1 mm 2 m/S 732 mmHg 96%
01:00 -2°C° 0.1 mm 3 m/S 732 mmHg 96%
02:00 -2°C° 0.1 mm 3 m/S 732 mmHg 95%
03:00 -2°C° 0.1 mm 3 m/S 732 mmHg 95%
04:00 -2°C° 0.1 mm 3 m/S 733 mmHg 94%
05:00 -2°C° 0 mm 2 m/S 733 mmHg 94%
06:00 -3°C° 0 mm 2 m/S 733 mmHg 94%
07:00 -3°C° 0 mm 2 m/S 733 mmHg 94%
08:00 -2°C° 0 mm 2 m/S 733 mmHg 92%
09:00 -2°C° 0 mm 2 m/S 732 mmHg 91%
10:00 -2°C° 0 mm 2 m/S 732 mmHg 89%
11:00 -2°C° 0 mm 3 m/S 732 mmHg 88%
12:00 -1°C° 0 mm 3 m/S 731 mmHg 87%
13:00 -1°C° 0 mm 3 m/S 730 mmHg 86%
14:00 -1°C° 0.5 mm 3 m/S 730 mmHg 90%
15:00 -1°C° 0.5 mm 3 m/S 730 mmHg 94%
16:00 -1°C° 0.5 mm 3 m/S 729 mmHg 97%
17:00 -1°C° 0.8 mm 2 m/S 729 mmHg 98%
18:00 -1°C° 0.8 mm 2 m/S 728 mmHg 98%
19:00 -1°C° 0.8 mm 2 m/S 728 mmHg 98%

29 Januar, Freitag

Zeit Temperatur Niederschläge Wind Luftdruck Luftfeuchtigkeit
Mehr zeigen

Wir brauchen deine Erlaubnis

Meteoprog und unser Service Anbieter werden persönliche Daten aufbewahren, so wie Cookies, Geräte Bezeichnung oder ähnliche Technologien von deinem Gerät und Prozess, so wie Persönliche Daten Inhalte und Werbungen, genauso wie social Media und den Verkehr zu analysieren.

  • Aufbewahrung und/oder Zugang zu deiner Geräte Informationen.

    Cookies, Geräte Bezeichnung oder andere Informationen, können aufbewahrt oder Zugang zu deinem Gerät erhalten, für den Grund, der oben angegeben wird.

  • Personalisierte Werbung und Inhalte, Messungen, Einblick in das Publikum und Produkt Entwicklung.

    Werbungen und Inhalte können personalisiert werden, basierend auf ein Profil. Mehr Daten können besser personalisierte Werbungen und Inhalte hinzufügen. Werbung und Inhalte können gezeigt und gemessen werden. Einblicke über das Publikum, welche die Werbung gesehen haben und den Inhalt, können abgeleitet werden. So wie Daten können genutzt werden, um es zu verbessern oder die Benutzer Erfahrung zu verbessern das System und die Software.

Wenn du “Ich stimme zu” klickst, erlaubst du uns, die Cookies zu benutzen die Geräte Bezeichnung, den Web oder ähnliche Technologien zu benutzen. Deine Settings, können in deinem Gerät bei deinem Browser geändert werden.

Für den bestimmten Zweck, berechtigten Interessen beruhen darauf, mehr als auf den Inhalt. Du kannst mehr darüber in unseren Privaten und Cookie Politik lesen.